Back to catalog

CZ-4 DEB

AliveSSO
NORAD 35376·DEBRIS·🇨🇳 China

Launched Oct 23, 2006 from Taiyuan Satellite Launch Center

Loading…

Next Passes (next 24 hours)

TLE

FreshSource: Space-Track

Epoch: Sep 14, 2026, 13:49 UTC

1 35376U 06046J   26257.57604104  .00014873  00000-0  86643-3 0  9992
2 35376  97.8215 194.9696 0075349 170.8219 189.4408 15.09687744 53809

Track CZ-4 DEB in real time with AllMySat

Download on the App Store